Wind_Speed
22 26 26 24 23 22 20 18 17 17 17 17 16 16 15 14 14 14 14 14 15 14 13 13 14 14 13 12 12 12 10 11 11 11 12 13 14 13 13 12 11 10 9 9 10 11 11 11 12 12 11 13 14 14 14 14 15 15 15 15 16 16 16 17 17 17 18 18 17 17 16 16 15 14 14 13 13 12 12 13 13 15 16 15 15
24 28 26 25 23 22 20 19 18 18 17 17 16 16 15 14 14 14 15 15 15 14 13 13 14 14 12 11 12 12 10 10 10 11 13 14 13 13 12 11 10 9 9 9 10 11 10 10 12 12 12 12 13 13 13 13 13 13 13 13 14 15 15 15 15 15 16 17 17 17 17 15 14 13 13 13 13 14 14 14 13 14 14 14 14
25 28 27 25 23 22 20 19 19 18 18 17 16 15 15 14 14 14 15 15 15 14 13 13 14 14 12 11 12 12 11 10 10 10 12 14 13 13 12 11 10 9 9 9 10 10 10 11 11 12 12 12 12 12 12 12 11 11 12 12 13 14 13 13 14 14 15 16 17 18 17 16 15 13 12 12 12 13 14 15 14 13 13 13 14
25 27 28 26 24 22 20 20 20 19 18 17 16 15 15 14 14 14 14 15 15 15 13 13 14 13 12 11 12 13 11 11 11 10 11 12 12 12 11 10 9 9 8 8 9 9 10 11 11 11 11 11 11 11 10 11 11 11 11 11 12 13 13 13 13 14 16 18 20 18 17 16 15 14 12 12 13 14 15 15 13 13 14 14 14
25 27 29 26 24 22 21 21 20 20 18 17 16 15 15 14 14 14 14 15 15 15 13 13 13 12 11 11 12 12 12 11 11 10 10 10 10 10 9 7 7 7 7 8 8 9 11 10 10 10 10 10 10 10 9 9 9 10 10 10 11 12 13 13 13 13 14 16 18 16 15 16 16 14 13 14 13 14 14 13 13 13 14 14 13
25 28 29 26 24 23 22 21 21 20 19 18 17 16 15 15 15 14 14 15 15 15 14 13 12 12 11 11 11 12 12 11 11 10 10 9 9 8 7 6 5 6 7 8 8 9 10 9 9 9 9 9 9 9 9 8 8 8 8 9 10 11 12 12 12 12 11 11 11 12 13 15 14 13 12 13 13 13 12 12 13 13 13 13 13
26 27 26 26 25 23 22 21 21 20 19 18 17 16 15 15 15 14 14 15 15 14 13 12 12 12 11 11 11 11 11 11 11 11 11 10 9 8 7 7 6 6 7 8 8 8 8 8 8 8 9 9 9 8 8 8 7 8 8 8 9 11 12 11 10 9 9 8 7 10 12 12 12 14 12 11 11 11 11 10 11 11 12 12 12
25 24 23 26 26 24 23 22 21 20 19 18 17 16 16 15 14 14 14 14 14 14 12 12 11 11 11 12 12 12 12 12 12 12 11 10 9 9 8 8 7 6 7 7 7 7 7 7 7 8 8 8 8 8 7 7 7 7 6 6 9 11 11 11 9 8 7 6 6 8 11 13 14 14 12 11 10 10 10 9 10 11 11 12 12
23 22 22 25 26 24 23 22 21 20 19 18 17 16 16 15 14 14 14 14 13 13 12 12 11 11 12 12 13 13 13 12 11 11 10 10 9 9 8 7 7 7 7 6 6 6 6 7 7 8 9 8 7 7 6 7 6 6 6 6 9 11 11 10 8 7 6 8 10 12 13 15 15 14 12 9 9 8 8 9 10 11 11 11 12
23 21 21 25 26 24 23 22 21 20 19 18 17 16 15 15 14 14 13 13 13 13 12 12 12 11 12 12 13 13 12 11 10 10 9 9 8 8 8 7 7 7 7 6 7 7 6 7 8 9 8 7 6 5 5 6 5 5 4 5 9 11 8 7 7 7 7 9 11 14 15 15 15 13 10 8 8 8 7 9 9 11 11 11 12
22 20 21 26 26 24 23 21 21 20 19 18 17 16 15 14 14 14 13 13 13 13 13 13 12 12 12 12 12 12 11 10 10 9 8 8 7 7 7 7 7 7 7 7 8 8 7 8 9 7 6 5 4 4 5 5 4 4 4 5 9 10 7 7 7 8 9 10 10 11 12 12 12 11 9 8 8 7 7 8 9 11 10 10 12
21 20 22 27 26 24 23 21 21 20 19 18 17 16 15 14 14 14 14 14 14 13 13 13 13 12 12 12 12 11 10 10 9 8 7 7 6 6 7 7 7 7 8 8 8 8 7 7 7 5 4 4 4 4 4 4 4 3 3 5 9 10 8 7 6 9 10 11 10 12 13 10 8 9 10 8 8 8 8 9 10 10 9 10 11
21 21 25 28 25 24 23 21 21 19 19 18 16 16 15 14 14 13 13 13 13 12 13 12 12 12 12 12 11 10 10 9 8 7 6 6 5 5 6 6 6 6 8 8 8 8 7 7 6 4 4 4 4 5 5 5 4 2 2 7 11 10 8 7 6 7 8 9 9 11 9 8 6 8 10 9 9 9 9 10 10 10 10 10 10
21 22 27 28 25 23 22 21 20 19 19 17 16 15 14 14 13 13 12 12 12 12 12 12 11 11 10 10 10 10 9 8 7 7 5 5 5 4 5 5 6 6 7 8 7 7 6 5 4 4 4 5 6 6 6 6 6 4 6 11 12 9 7 5 6 6 8 8 9 11 7 6 7 10 11 9 9 9 9 10 9 10 10 10 10
21 23 26 26 25 22 21 21 20 19 18 17 16 15 14 14 13 12 12 12 12 11 11 11 10 10 9 9 8 8 7 7 7 6 5 4 4 4 4 5 5 6 7 7 6 6 6 5 4 4 5 6 8 7 7 7 7 7 9 13 11 8 6 5 7 7 8 8 9 11 7 6 8 10 10 9 9 9 9 9 9 10 10 10 9
21 23 25 25 24 22 21 20 19 19 18 17 15 15 14 14 13 12 12 12 12 11 10 9 9 8 8 8 7 6 6 6 6 6 5 4 3 3 4 5 5 6 7 7 7 6 7 6 4 5 5 8 8 6 6 6 7 9 9 13 10 8 5 6 9 8 7 8 9 9 8 9 8 9 9 9 9 9 10 9 9 9 10 10 10
21 21 23 24 23 22 21 20 18 18 17 16 15 14 13 13 13 12 12 12 12 11 10 9 8 8 8 8 7 5 5 5 6 6 5 5 4 3 3 4 5 6 8 8 7 7 7 7 5 6 7 8 7 5 6 5 7 9 9 11 10 8 7 7 9 8 7 8 10 10 9 9 8 8 9 9 9 9 9 9 9 9 9 10 10
19 19 22 21 21 20 21 20 18 18 17 16 15 14 13 12 12 12 12 12 11 10 10 10 9 9 8 7 6 5 4 4 5 5 5 6 5 4 4 5 5 6 8 8 7 7 7 7 6 7 8 8 6 4 5 5 6 8 9 11 11 10 8 8 10 8 8 7 12 11 7 8 8 9 9 9 9 9 9 9 9 9 9 9 10
18 18 21 21 19 18 19 20 18 17 18 16 15 14 13 13 12 11 11 11 10 10 10 10 9 9 8 6 5 5 4 4 5 5 6 6 6 5 5 5 5 6 7 8 8 8 8 7 7 9 9 8 6 5 5 5 5 7 9 11 13 11 8 8 8 8 8 7 10 10 7 7 7 8 9 9 9 9 9 9 9 9 9 9 10
18 18 20 22 20 17 18 19 17 15 16 16 15 14 14 13 13 12 11 12 11 10 10 9 9 8 7 6 5 5 4 4 5 6 6 6 6 6 6 6 5 6 7 8 8 8 7 7 8 10 8 7 6 6 5 5 4 4 7 10 12 9 7 7 5 8 10 6 6 6 6 5 6 9 9 9 9 9 9 9 9 8 9 9 9
18 19 20 22 20 17 15 16 15 14 15 15 15 15 15 14 13 13 12 12 11 10 10 9 8 7 6 6 6 5 5 5 6 7 6 7 8 7 6 6 7 7 7 8 8 8 7 7 9 10 8 7 6 5 5 4 3 2 3 8 10 8 6 6 6 10 12 8 6 4 3 3 7 10 9 9 9 9 9 9 8 8 8 9 9
17 19 20 19 19 18 15 14 15 14 14 13 13 15 16 15 14 13 12 12 12 10 9 9 8 8 7 7 7 7 7 7 8 9 8 9 11 9 7 7 8 8 8 8 7 8 7 7 9 10 8 6 5 5 4 3 3 1 2 3 7 6 4 2 5 9 11 9 7 4 3 5 9 11 10 9 8 9 9 9 8 8 8 8 9
20 21 19 17 17 18 15 15 15 14 14 12 12 13 15 16 13 11 12 12 12 11 10 10 10 10 9 9 9 8 8 10 10 12 12 11 12 11 9 8 8 8 8 8 8 7 7 8 9 11 10 8 7 6 4 3 3 2 2 3 5 4 2 5 5 6 11 10 7 5 4 7 11 11 9 8 9 9 9 9 8 8 8 8 9
21 23 22 20 19 17 15 15 15 15 14 12 13 12 13 15 13 11 13 13 12 11 11 11 10 11 10 10 10 9 10 11 12 13 12 11 12 12 11 9 9 8 7 8 8 7 7 8 9 11 11 10 9 7 7 7 5 3 3 3 4 4 4 7 4 7 12 9 6 5 5 10 13 11 9 8 8 8 8 9 9 8 8 7 8
18 19 21 24 21 18 17 16 15 15 14 13 13 11 12 14 13 12 14 14 13 12 13 13 9 9 10 10 11 11 12 11 12 13 11 11 11 11 11 10 9 8 8 8 7 7 8 9 10 12 12 11 10 11 11 10 7 5 4 3 4 5 6 7 3 8 11 8 5 4 4 11 14 12 10 9 9 8 7 8 9 8 8 7 7
16 16 18 23 24 18 17 18 16 15 14 14 13 12 13 14 12 12 13 12 12 12 13 10 7 7 8 10 13 13 12 12 13 14 13 12 11 11 11 10 9 8 8 8 8 9 9 9 10 11 11 10 10 12 12 9 8 7 7 5 5 7 7 7 5 8 10 8 7 4 4 10 13 12 10 10 9 8 7 7 8 8 9 8 7
15 16 16 19 23 18 14 17 16 14 14 12 12 12 12 13 11 11 10 11 10 10 8 5 6 9 10 11 14 14 13 12 11 13 16 13 11 10 10 10 9 9 9 9 9 11 10 8 10 11 10 11 12 12 10 8 8 8 8 8 7 9 8 8 7 9 9 8 8 4 4 8 11 12 10 9 9 9 7 6 6 7 8 9 8
15 16 15 14 18 17 16 19 16 15 15 11 11 11 12 12 11 12 12 12 10 9 7 6 9 12 13 13 13 14 12 10 10 12 15 14 11 9 10 10 11 12 13 13 10 10 11 10 11 12 11 12 12 10 10 8 9 8 7 7 7 8 9 8 8 9 9 8 8 5 5 7 10 12 10 9 9 9 7 7 6 5 7 9 8
16 16 15 14 15 15 17 20 17 15 14 11 12 11 12 12 12 13 13 12 11 10 10 10 10 11 12 12 11 12 10 9 9 11 12 13 12 11 10 8 10 15 15 14 12 10 11 11 10 11 10 11 11 10 12 11 10 9 7 7 7 7 8 8 8 9 9 8 9 7 5 6 8 11 11 8 9 10 8 8 6 5 6 8 8
16 16 14 14 15 15 15 15 14 14 13 11 12 9 7 8 9 11 12 12 12 10 10 10 10 10 10 11 11 11 10 9 9 9 10 11 12 12 11 8 10 14 12 11 12 10 10 10 9 10 11 10 11 11 13 12 11 10 9 9 9 8 8 8 8 9 10 9 8 7 5 5 7 9 10 9 9 10 8 8 8 6 6 6 7
16 15 13 13 16 15 14 14 13 13 12 12 11 7 5 5 6 7 8 9 8 7 8 9 9 10 11 12 12 11 10 9 9 10 8 9 11 12 12 11 11 12 10 8 8 8 9 9 8 10 12 12 12 12 13 13 11 10 10 10 10 10 9 10 9 9 10 11 8 8 7 5 6 7 9 9 9 9 8 8 9 8 7 7 6
16 13 15 15 14 15 16 15 15 13 10 11 10 7 6 5 6 6 6 5 4 4 6 8 8 10 12 12 11 10 10 9 10 10 9 9 11 13 12 11 11 10 9 7 5 7 8 8 9 11 13 13 12 9 10 12 12 11 11 11 11 10 10 10 10 9 11 12 10 9 9 7 6 6 7 9 10 10 8 8 10 9 7 8 8
15 15 18 14 15 20 19 15 15 12 10 11 9 8 6 5 10 9 7 6 5 3 2 2 3 6 8 9 9 9 8 8 9 9 10 10 11 12 11 9 8 8 8 7 5 6 7 7 8 11 11 10 9 8 7 9 11 11 12 12 11 11 10 10 10 9 10 12 11 11 10 9 9 8 8 9 10 11 10 8 9 10 8 8 9
16 19 18 15 19 21 18 15 15 11 10 10 8 10 7 5 9 9 8 8 9 8 6 4 2 4 6 6 6 6 6 7 9 9 11 12 11 11 10 8 7 8 9 8 8 7 8 8 8 9 7 6 7 8 8 8 9 10 10 11 9 9 10 10 11 11 10 10 11 12 11 10 11 11 10 10 9 10 11 10 9 10 8 7 10
18 20 17 16 18 18 17 15 14 12 11 10 10 11 8 8 10 9 8 7 11 13 11 10 7 5 6 6 5 6 7 8 8 9 11 12 11 10 10 10 8 8 9 10 13 12 9 9 8 7 4 5 7 7 7 7 9 9 8 9 8 5 5 6 8 11 12 12 10 9 10 11 12 12 12 11 11 10 10 11 10 10 10 8 9
20 20 18 18 17 17 16 15 14 13 12 11 11 11 9 10 10 8 6 6 7 10 11 10 8 6 4 5 6 7 7 7 6 6 8 9 9 10 9 9 6 5 8 13 16 13 10 10 10 8 4 5 8 7 6 6 7 6 2 4 5 6 5 5 5 6 9 11 11 9 8 9 10 11 11 11 12 12 11 11 11 11 12 11 10
20 20 20 18 18 17 16 15 14 13 12 12 11 11 10 9 9 7 6 7 5 5 10 10 9 7 3 2 3 4 4 5 4 4 5 5 6 8 7 5 6 9 12 14 15 11 9 10 11 9 5 5 4 2 2 2 2 4 4 1 4 5 5 5 5 7 7 7 9 11 10 9 9 11 11 10 11 12 12 12 12 12 12 13 12
19 19 19 18 18 17 16 15 14 13 12 12 11 10 9 8 8 7 7 8 6 7 8 9 10 7 5 4 2 1 1 1 1 1 1 3 3 5 4 4 7 11 13 13 16 14 8 8 10 9 7 6 2 6 5 4 6 5 5 3 3 4 4 5 6 6 8 8 7 9 11 11 11 11 11 11 11 12 12 13 13 13 13 13 13
18 19 19 18 18 17 17 16 14 14 13 12 11 10 9 7 7 7 7 8 7 8 8 8 8 7 5 4 3 3 3 4 4 5 4 3 2 1 1 3 5 8 11 11 14 15 10 9 9 9 8 4 1 4 4 2 5 3 4 6 5 4 3 5 7 7 7 8 9 9 9 9 11 12 12 12 12 13 13 14 14 14 14 14 14
17 19 18 18 19 18 18 16 15 14 14 12 10 9 9 7 7 7 7 8 9 8 7 8 8 6 5 4 4 4 4 4 4 5 5 5 4 4 2 1 1 3 8 9 10 13 12 10 7 8 7 2 1 2 4 2 3 2 2 4 6 7 5 6 8 7 6 8 9 9 8 6 5 9 11 11 12 13 13 14 15 14 15 15 15
16 18 18 19 19 19 19 17 16 15 14 13 10 9 9 8 7 7 8 6 6 7 7 8 8 7 7 7 6 6 5 4 5 6 5 5 3 3 4 3 3 1 3 5 7 10 10 9 6 4 4 3 3 3 4 5 3 2 0 1 5 9 8 8 8 8 7 8 9 10 10 9 8 5 7 9 10 11 10 12 15 15 14 14 15
15 18 18 19 19 19 19 18 18 16 14 13 10 9 9 8 6 7 9 7 7 10 10 9 7 7 8 7 6 6 5 5 6 6 5 7 6 4 4 5 4 3 1 1 4 6 6 7 6 3 2 5 6 5 6 7 4 3 2 1 3 6 7 7 10 9 8 8 7 8 9 10 11 9 8 8 9 9 7 6 11 13 14 15 16
16 18 18 18 20 19 19 19 18 17 15 13 11 9 10 9 7 7 10 11 12 13 12 10 8 8 8 7 7 6 6 6 6 6 6 7 7 6 6 5 4 5 4 3 2 2 3 4 3 4 5 4 6 6 7 7 6 5 2 1 0 2 3 3 5 6 7 7 5 5 6 7 9 10 12 12 10 11 10 7 8 11 14 14 15
18 19 19 19 20 19 20 20 19 17 16 15 13 12 12 11 11 10 11 12 12 12 12 10 8 8 8 8 8 8 8 8 8 9 8 7 7 6 7 6 5 5 5 5 4 4 3 2 2 5 6 5 6 7 7 8 9 7 2 1 2 1 2 1 1 4 3 3 2 2 3 5 7 7 10 11 11 12 12 11 11 11 14 13 9
20 20 20 19 19 19 21 20 19 19 18 16 16 16 15 13 12 11 11 12 11 10 11 8 7 8 8 8 8 8 8 8 8 9 9 8 8 6 6 6 6 5 5 5 5 6 7 5 2 3 5 7 7 6 5 5 8 8 3 2 2 1 2 1 1 1 1 1 2 3 3 4 5 6 7 8 8 9 10 11 12 12 13 14 9
21 21 20 20 20 20 21 21 20 20 19 18 17 18 17 15 14 11 11 12 11 11 10 8 8 9 8 8 8 8 8 8 8 8 8 7 7 5 6 7 6 5 6 8 8 7 9 11 8 6 5 6 7 5 5 4 5 7 4 2 1 2 3 2 1 1 3 3 3 3 4 4 5 5 5 5 6 6 7 8 9 9 8 12 14
20 21 21 20 21 22 22 22 21 21 21 19 18 19 17 16 15 12 12 12 12 12 11 9 9 9 8 7 8 8 8 8 9 8 8 7 7 6 8 9 8 5 5 9 12 11 11 12 11 9 8 7 7 6 6 6 5 4 3 2 1 1 3 3 2 1 1 2 2 3 5 6 7 7 5 5 5 5 6 7 7 6 4 8 13
21 22 23 22 22 24 23 23 22 22 23 20 20 20 18 18 16 13 12 12 14 14 11 9 9 8 7 6 7 8 8 8 8 8 8 8 8 8 7 9 10 9 8 9 11 12 12 12 10 11 11 9 8 7 7 7 5 4 2 2 2 3 3 3 3 3 2 0 2 4 5 5 5 7 7 7 6 5 7 7 7 7 6 7 9
25 21 23 24 23 24 24 23 23 23 23 22 21 20 19 19 17 13 13 14 15 14 12 10 9 8 7 6 8 8 7 8 8 8 9 8 8 8 7 8 11 12 12 10 9 9 10 10 10 11 11 9 8 7 7 8 7 5 3 2 3 6 6 5 4 4 3 2 2 3 4 3 3 6 8 6 5 5 6 8 8 9 9 9 9
26 19 19 24 24 24 25 24 23 23 24 23 22 21 19 19 17 14 14 17 16 15 13 12 10 9 8 7 7 7 7 8 8 8 8 9 8 8 8 8 10 11 11 10 9 9 9 9 10 10 10 9 10 9 10 9 7 5 5 4 3 1 3 4 3 1 3 3 2 3 4 4 3 5 6 6 5 5 6 8 8 8 9 10 11
25 20 20 22 26 26 25 24 23 24 25 24 23 22 20 20 18 15 15 18 17 16 16 14 11 10 9 8 7 7 7 7 7 7 8 8 8 8 8 8 8 9 10 10 9 9 9 9 9 10 10 10 10 11 11 11 8 6 8 10 10 9 7 6 7 7 6 3 3 4 6 9 9 9 7 5 4 4 6 8 10 10 9 10 10
Wind_Direction
130 142 145 144 142 141 144 142 139 136 134 135 139 143 146 150 154 158 157 153 148 143 139 136 137 138 136 134 136 136 136 135 128 121 124 128 128 128 125 122 118 110 103 99 96 91 85 83 83 83 78 76 81 82 82 85 88 89 94 98 95 91 89 91 92 95 97 96 95 93 91 87 81 79 78 74 75 73 79 79 73 73 72 71 72
133 144 145 145 144 143 145 142 139 137 135 136 140 144 147 152 157 159 158 153 147 144 140 139 141 141 138 134 137 138 139 139 138 132 132 134 131 132 130 129 124 114 104 101 96 93 90 89 89 87 82 81 83 83 85 88 91 93 96 97 93 92 91 94 99 101 104 102 99 96 91 84 79 77 76 71 71 75 84 86 77 76 74 73 73
133 142 145 145 144 145 145 141 140 138 136 139 141 145 149 154 158 159 157 152 147 144 143 144 145 143 137 134 133 135 138 140 143 141 141 142 140 139 138 135 127 116 108 105 102 98 93 91 91 89 87 84 85 83 87 88 90 96 99 97 95 97 100 100 102 101 100 98 98 99 92 83 80 79 81 75 78 87 86 80 76 77 75 72 72
132 141 146 146 146 146 144 142 141 139 139 140 142 146 150 155 157 157 155 152 150 147 147 147 147 143 136 133 132 133 134 137 144 146 147 152 154 150 146 142 135 128 118 109 106 101 92 91 91 89 88 87 87 85 91 96 90 95 102 103 101 103 107 104 101 100 99 93 90 92 89 84 81 77 81 79 81 84 78 75 76 79 75 73 73
133 143 146 146 147 146 145 144 141 140 141 141 143 147 151 155 155 155 154 153 153 152 150 149 147 141 136 132 134 136 134 132 139 147 150 155 160 160 157 149 144 140 122 109 103 96 91 91 90 87 88 89 89 85 91 100 91 90 98 105 107 104 106 107 106 107 108 101 90 86 84 85 83 75 76 76 77 79 76 75 73 78 77 74 73
135 142 145 147 148 148 148 146 143 142 142 143 145 148 152 153 155 154 153 155 155 155 151 149 146 141 137 132 135 140 138 134 135 144 149 151 156 157 156 150 143 138 122 109 99 89 90 91 90 89 90 90 88 86 90 93 90 91 98 103 104 104 106 105 106 108 110 113 101 93 92 90 88 81 75 75 76 75 74 72 70 77 77 74 74
134 139 144 149 149 150 150 147 145 143 142 144 146 149 151 152 153 153 153 154 153 153 150 148 147 142 138 135 138 140 141 140 139 141 142 144 148 147 140 138 133 131 119 102 97 91 91 95 94 95 95 93 88 88 92 93 96 99 105 105 103 108 108 101 101 101 103 108 101 109 107 91 92 91 85 81 80 80 78 76 73 77 76 74 75
132 137 141 149 151 151 151 149 147 144 144 144 148 150 150 152 152 153 152 152 152 151 150 148 146 143 140 139 140 140 141 142 142 141 138 137 138 136 127 126 127 120 106 98 103 98 97 101 100 103 101 95 92 91 93 101 105 104 110 104 110 116 107 99 95 89 92 83 75 116 116 96 98 95 89 86 85 87 83 81 78 77 78 76 77
133 136 140 151 153 152 153 150 148 145 146 147 149 150 151 152 152 153 151 150 151 150 150 148 145 142 140 141 142 143 143 143 144 140 138 134 132 133 128 129 134 128 121 127 126 111 110 109 108 109 103 98 96 95 97 106 108 108 110 99 115 122 108 97 92 85 80 65 78 111 112 100 99 93 91 92 90 91 88 93 90 82 82 81 81
134 136 141 154 154 154 154 151 150 148 149 150 150 151 151 152 152 152 150 151 151 150 149 146 143 141 140 142 143 145 143 142 143 141 139 136 135 136 135 137 141 145 145 145 136 132 134 127 129 118 103 104 103 100 102 107 110 114 110 101 117 128 118 101 99 89 75 72 89 112 113 106 104 99 94 94 95 94 102 108 96 84 83 86 85
133 134 143 154 154 155 154 152 152 151 152 151 151 152 153 152 152 151 150 151 150 149 147 145 143 141 141 143 144 144 142 141 142 142 140 137 137 137 139 142 144 152 152 150 147 150 147 144 151 136 113 111 112 112 107 107 110 108 103 111 125 133 118 96 93 70 73 86 87 106 117 109 100 101 97 99 104 97 103 100 86 85 85 90 90
131 132 148 155 154 156 154 154 153 154 154 153 154 153 154 153 152 150 148 148 148 148 147 147 145 145 146 146 145 144 142 141 142 141 140 137 136 137 141 144 146 153 155 157 157 157 155 158 162 147 131 114 110 113 105 99 94 90 91 121 129 125 103 90 83 58 75 96 101 113 110 98 79 89 104 108 111 98 96 94 90 90 84 87 89
130 135 151 154 154 157 155 155 155 156 157 156 157 155 156 152 150 146 145 146 147 147 147 149 148 149 149 149 149 147 147 144 146 144 144 144 143 144 144 147 146 149 155 160 163 166 170 171 165 142 125 109 98 94 90 84 82 90 104 130 129 120 108 97 74 64 89 96 125 141 112 87 63 84 110 112 111 103 98 97 95 91 85 88 88
129 138 150 153 154 157 155 156 157 159 160 160 159 158 158 153 150 144 145 148 146 148 149 151 150 150 150 151 153 152 153 150 153 152 149 149 145 148 148 149 144 146 156 158 161 173 179 175 167 133 114 107 96 86 84 82 85 95 119 136 135 127 120 97 51 65 109 98 118 137 109 83 77 98 116 118 115 109 104 101 99 94 90 91 90
129 137 148 152 153 155 156 158 160 162 164 163 162 162 162 158 155 149 147 147 146 150 151 154 150 150 153 154 158 159 162 162 163 156 153 151 141 144 149 147 142 146 159 159 152 161 166 163 160 129 115 116 109 94 87 89 90 91 125 142 142 135 116 80 54 66 111 110 115 119 106 99 98 115 123 120 119 114 113 108 106 101 95 93 87
130 138 148 152 152 155 157 160 163 166 168 165 166 165 163 162 159 155 151 150 151 153 153 155 152 154 157 157 163 168 171 172 167 159 160 162 154 155 154 149 142 146 159 165 157 153 154 155 157 135 125 128 122 102 87 97 104 96 126 147 148 137 109 87 82 83 112 118 129 123 112 116 114 122 125 124 125 120 117 113 110 105 101 98 91
131 139 145 146 151 157 159 163 167 167 170 168 169 168 166 163 159 158 157 158 159 160 159 158 158 160 165 167 171 176 174 169 166 168 172 175 182 179 172 167 153 149 159 166 164 159 159 160 154 144 139 139 137 112 87 91 115 109 122 143 142 127 106 92 87 99 123 120 131 127 111 115 116 118 125 130 127 124 120 117 116 109 106 102 98
131 135 137 141 147 156 162 165 167 168 170 170 172 172 171 167 162 163 163 164 164 167 168 165 168 171 176 177 178 181 171 171 175 182 187 186 193 192 194 192 172 158 163 168 170 168 169 169 158 153 149 147 150 133 101 90 113 119 125 137 131 117 107 92 77 92 118 120 129 126 113 112 117 124 128 133 130 129 127 124 121 115 112 106 103
129 132 136 142 145 154 167 166 165 171 172 172 175 176 177 174 167 170 171 171 172 174 174 173 175 176 181 182 178 173 166 185 192 192 199 197 195 199 205 205 192 174 173 177 179 182 181 180 170 163 157 154 157 145 123 101 107 122 128 137 134 124 120 105 86 108 124 119 126 123 116 116 122 132 135 137 135 134 133 130 126 120 116 112 109
131 130 135 147 151 155 167 164 161 169 172 172 177 180 181 180 173 175 178 176 180 180 178 178 177 177 181 180 175 162 162 198 206 200 205 202 196 205 208 204 204 193 188 190 192 195 194 192 180 171 166 160 157 144 130 111 103 121 133 142 146 140 118 95 82 135 148 135 129 117 109 123 131 133 139 143 140 139 138 134 130 125 120 114 112
131 127 137 151 157 154 157 160 160 163 166 171 180 184 184 184 181 179 181 182 187 187 182 178 174 175 176 173 173 163 164 199 213 208 204 202 199 207 211 205 210 207 202 201 203 203 202 202 187 180 179 170 166 158 143 128 112 106 145 151 162 158 103 76 87 130 151 154 151 133 104 138 141 137 145 149 143 142 141 138 135 131 124 118 114
127 130 145 153 156 151 150 153 157 161 162 167 176 187 190 185 185 183 181 187 191 191 186 179 176 180 180 178 178 171 176 197 209 214 209 200 199 204 211 211 215 218 212 208 206 205 206 207 195 190 192 187 189 187 175 161 140 132 197 185 182 164 90 110 138 129 145 154 153 134 115 144 142 139 147 150 145 144 143 143 141 135 131 124 118
134 141 153 155 155 150 149 149 151 156 160 163 168 183 192 184 181 182 184 194 196 195 189 181 179 181 185 189 183 167 182 203 207 213 210 197 197 201 208 215 219 223 215 211 209 211 214 213 205 203 207 211 214 207 206 207 176 161 210 235 198 156 136 198 180 147 152 156 151 124 125 144 140 142 152 154 150 150 148 148 147 143 141 133 128
142 148 153 154 152 147 146 147 149 151 157 164 167 173 184 182 175 178 188 196 197 197 198 191 181 181 191 196 190 174 186 212 213 213 208 193 194 199 207 213 216 220 214 213 217 221 225 224 219 215 219 228 231 218 215 219 206 192 204 210 185 156 201 209 177 156 159 153 143 119 127 144 143 150 157 157 155 153 154 151 152 149 147 141 137
146 147 149 149 145 146 147 147 149 154 163 162 162 165 170 175 174 184 192 196 198 197 202 202 189 185 192 196 202 193 190 205 206 208 208 195 194 201 206 208 210 218 215 211 217 226 229 230 229 227 226 233 240 229 223 216 201 213 214 176 182 190 205 209 170 152 158 150 137 115 138 151 148 156 158 158 159 156 158 155 156 157 152 149 143
148 145 146 144 141 143 145 148 150 158 166 158 156 160 163 168 173 190 193 194 201 202 206 206 191 182 185 195 211 212 203 200 195 197 202 197 197 199 201 206 206 212 219 207 215 233 233 230 233 236 229 228 240 239 237 218 194 213 221 202 196 204 208 211 181 152 152 144 135 117 148 155 148 154 158 157 162 161 161 159 161 164 158 154 151
151 144 142 143 142 141 145 151 150 157 162 159 159 157 165 173 179 193 193 193 194 201 216 203 189 200 202 205 214 219 214 208 200 195 195 193 195 195 195 204 202 207 221 210 216 236 236 226 225 235 229 228 236 235 240 227 202 210 218 214 193 195 211 211 187 160 153 141 132 123 141 153 148 151 158 155 161 166 163 163 163 169 168 158 153
142 137 136 144 147 142 153 155 148 156 158 159 164 159 173 181 178 182 186 198 199 203 216 197 198 204 199 200 212 218 218 216 214 203 195 191 194 197 196 200 199 205 216 215 217 228 228 223 224 231 228 231 236 226 229 229 223 224 221 223 198 195 212 205 186 164 158 151 137 123 115 142 152 155 162 158 159 168 168 167 166 174 176 165 160
133 136 145 158 155 141 147 148 145 158 157 158 164 164 179 181 179 178 177 188 190 190 197 194 195 192 188 196 211 218 217 216 217 212 202 197 198 199 195 192 203 211 213 213 216 220 224 223 227 236 231 231 235 225 223 219 224 234 228 224 208 202 206 199 194 171 160 165 151 137 113 126 149 156 166 166 159 166 171 171 174 172 172 172 170
137 147 163 163 147 136 138 140 145 154 152 155 162 160 169 180 184 180 176 182 183 183 189 189 186 182 188 198 209 213 212 212 217 217 207 203 203 201 197 193 212 225 224 212 215 225 228 222 225 238 235 229 230 223 222 218 214 224 230 225 211 205 201 196 203 190 174 175 167 158 141 127 145 155 165 170 162 166 173 172 176 173 172 179 175
145 155 154 136 130 136 134 131 130 134 142 146 148 144 154 192 192 173 170 175 176 173 178 184 186 188 193 197 204 206 202 204 210 214 215 211 209 211 209 202 212 230 238 225 221 225 223 226 228 236 236 226 225 219 214 218 213 209 227 234 216 200 198 196 201 204 188 181 182 180 173 153 153 159 163 169 168 172 176 170 176 184 181 181 180
150 147 128 126 131 133 121 119 122 116 119 125 129 137 153 173 152 144 153 146 134 132 152 172 180 185 191 196 201 198 194 196 198 206 223 225 219 222 215 202 208 221 229 226 215 214 224 233 227 236 240 229 232 233 210 211 218 210 214 232 221 200 198 193 194 209 198 187 195 199 189 179 173 170 165 168 172 178 182 170 175 188 183 178 186
149 131 125 128 113 114 111 114 123 111 102 114 125 127 116 116 118 119 126 117 98 101 134 173 171 177 191 203 202 196 193 195 193 197 216 227 227 229 226 216 212 221 226 214 195 206 232 236 226 237 240 224 231 247 234 224 232 223 211 221 217 202 202 195 194 213 208 195 199 203 198 192 190 184 176 172 174 181 187 180 178 187 187 178 185
140 128 130 120 102 108 112 115 122 112 106 109 106 110 99 93 115 110 105 118 128 141 162 171 168 191 206 221 220 207 201 200 193 185 199 217 227 227 232 230 219 229 228 206 195 204 227 229 230 241 228 211 222 230 237 241 241 236 226 233 233 210 209 205 200 207 210 206 199 196 200 205 200 191 183 180 181 183 187 189 188 189 192 182 182
133 132 131 119 112 114 115 119 123 113 109 106 91 99 95 82 101 103 99 126 138 139 145 151 162 184 202 213 219 215 212 209 194 182 190 209 228 231 229 226 218 232 236 219 207 201 216 221 222 234 218 216 231 223 221 234 241 243 238 246 272 274 246 235 214 207 208 209 205 198 201 208 207 198 190 188 191 192 192 194 194 191 194 194 190
134 137 133 125 123 120 121 122 120 112 106 104 96 97 92 80 87 90 90 113 130 136 138 135 142 161 188 201 210 216 218 219 204 191 196 207 230 239 238 230 206 196 225 228 210 200 218 224 218 223 226 225 231 225 207 217 245 263 267 217 263 293 290 299 282 250 229 209 207 214 210 204 210 208 200 202 202 201 202 200 199 195 194 203 206
139 141 137 132 127 126 127 121 117 115 108 104 100 97 94 88 92 88 80 84 77 113 136 127 120 132 140 154 204 225 229 231 210 196 206 215 232 239 240 226 189 181 205 213 199 202 225 224 219 220 233 238 250 345 84 97 10 358 16 190 242 283 287 297 298 293 287 249 221 222 223 214 214 215 211 212 209 208 212 209 207 204 199 204 211
143 145 141 136 130 130 130 124 122 119 114 109 103 103 101 90 91 89 86 90 66 60 93 101 96 101 95 81 66 37 1 335 79 89 182 223 240 233 224 217 211 202 202 194 190 202 209 203 214 221 231 231 267 10 41 32 10 13 5 349 299 292 287 288 283 284 293 291 271 248 240 225 216 219 216 213 215 220 221 213 211 212 209 210 213
148 147 145 140 134 134 134 130 127 123 123 118 109 111 107 92 95 101 96 96 88 69 66 74 77 81 87 81 61 58 39 34 39 36 36 22 3 8 178 225 232 209 201 194 192 199 201 202 210 218 228 228 304 22 61 353 320 334 355 356 339 313 313 315 302 295 290 292 294 283 268 241 224 225 222 221 226 230 226 216 213 214 215 217 218
153 152 150 145 139 139 139 136 134 131 129 125 123 125 118 112 115 110 90 83 89 85 73 77 78 73 75 75 68 63 47 40 35 31 40 37 29 35 46 235 263 201 202 203 198 200 205 210 211 218 222 198 76 54 96 156 250 267 351 344 319 301 301 309 308 313 306 296 297 290 289 289 264 238 232 234 237 237 232 224 220 218 220 223 226
160 160 158 150 146 145 143 142 142 138 136 136 138 136 131 129 124 115 107 102 115 114 92 80 76 67 64 66 65 56 48 42 30 38 47 38 43 62 39 9 3 36 202 201 201 205 206 203 203 216 219 195 191 192 171 170 187 212 167 314 287 283 279 275 284 303 306 302 306 297 289 295 307 296 254 245 245 248 242 231 228 225 228 232 232
172 167 166 156 151 150 147 146 147 144 143 143 140 129 124 125 128 132 126 110 109 115 103 86 82 77 66 65 67 57 52 50 42 51 50 34 48 82 58 18 15 28 19 183 197 202 201 203 201 187 198 220 218 210 192 176 170 187 169 137 273 276 270 261 267 276 281 287 300 296 285 281 292 306 293 269 258 261 261 248 236 231 240 243 236
188 174 172 161 155 154 150 149 149 148 146 144 140 124 113 111 107 110 110 97 91 98 97 90 89 85 76 75 75 66 57 56 54 60 63 45 44 66 71 52 27 26 39 57 88 142 171 187 184 177 181 209 226 230 219 196 180 171 160 154 138 271 239 241 255 241 248 262 274 285 282 278 282 292 293 281 271 271 272 272 256 240 243 252 249
197 181 176 166 160 157 153 153 151 150 148 144 143 135 122 113 102 97 105 107 97 93 94 93 92 86 80 77 72 66 60 57 52 55 65 54 45 62 75 70 54 42 52 61 72 77 94 165 183 177 172 180 208 223 224 210 191 171 139 120 99 60 179 141 221 208 217 236 236 271 264 271 277 279 284 279 274 277 274 276 281 271 256 256 267
202 189 180 171 165 160 156 155 153 152 150 146 148 143 132 124 115 108 108 111 109 106 106 104 102 94 86 80 73 68 65 61 53 57 64 58 57 65 63 69 74 63 48 50 67 73 73 80 99 139 148 165 183 190 191 203 201 191 180 133 123 143 166 126 254 221 1 301 243 247 249 269 276 276 288 285 278 276 269 270 285 298 278 252 249
206 194 183 177 169 163 158 156 155 154 152 150 152 146 137 134 129 125 125 128 133 129 122 115 109 101 94 88 79 72 69 66 62 66 66 59 64 53 37 61 76 50 33 46 58 67 75 71 66 77 106 143 153 146 145 156 187 197 197 182 156 131 133 122 68 338 329 321 298 273 268 275 275 278 289 292 293 284 272 271 284 306 288 248 245
214 197 185 183 172 164 161 159 157 156 155 154 153 147 141 141 139 143 151 147 135 124 120 116 109 107 104 97 90 82 74 71 68 70 67 56 62 53 40 53 60 48 40 49 52 57 69 66 64 73 76 96 112 109 116 131 151 168 168 167 172 143 140 139 129 157 281 307 312 302 296 279 269 273 272 277 296 295 284 286 292 296 280 257 258
223 205 186 185 175 167 163 160 159 158 158 157 154 149 147 148 147 156 161 146 128 122 123 123 117 118 115 108 104 94 82 80 75 71 71 65 66 65 53 46 47 58 65 56 50 53 63 63 64 70 69 76 89 96 106 110 114 107 102 142 173 190 168 147 153 170 173 230 263 283 301 289 267 264 257 263 282 293 292 290 292 286 278 278 270
218 211 188 183 177 169 164 162 160 160 161 160 157 152 153 154 152 161 160 140 131 132 134 133 130 130 123 114 109 100 90 88 83 79 78 75 72 70 64 52 48 57 65 66 62 58 60 60 60 63 65 69 70 82 102 102 104 97 82 164 213 219 204 189 182 192 200 215 245 259 273 268 262 264 254 256 273 287 293 286 283 278 276 284 279
206 215 202 184 176 171 166 164 162 162 164 162 158 155 158 159 157 166 158 140 141 146 143 142 142 142 133 125 118 108 103 96 93 94 89 85 81 74 69 61 57 61 64 68 73 70 69 67 65 64 64 66 63 69 82 82 88 79 50 41 20 342 203 182 153 213 254 247 275 300 286 267 270 279 262 258 280 293 288 281 279 277 279 284 278
191 207 215 190 176 173 169 166 164 164 166 165 161 158 161 163 162 169 160 148 154 154 147 150 153 153 149 144 138 127 119 111 109 108 100 96 93 86 78 69 67 68 67 71 75 71 69 68 69 69 68 67 63 66 70 67 70 63 49 46 40 38 44 51 46 24 6 354 346 344 331 320 318 321 306 278 293 314 290 276 272 272 278 279 270
Height
753 754 758 759 761 762 764 764 766 766 768 769 770 772 773 776 777 779 780 781 782 784 785 786 787 788 790 791 792 793 794 795 796 797 797 798 799 800 801 802 802 803 804 805 805 806 806 807 807 808 808 808 808 809 809 810 810 810 811 812 812 813 813 813 814 815 816 817 817 818 819 819 820 820 821 821 821 821 821 822 822 821 821 821 821
752 755 757 760 762 762 764 764 766 767 768 770 771 773 774 776 777 779 780 782 784 785 786 787 788 789 791 792 793 794 795 796 797 798 799 800 800 801 802 803 804 805 805 806 806 807 808 808 808 808 809 809 809 810 810 811 811 812 812 813 813 814 814 815 815 816 817 817 818 819 820 820 821 822 822 822 822 822 822 822 823 822 822 822 822
752 755 757 760 762 763 764 765 767 767 769 770 772 774 775 777 778 780 781 783 784 785 787 787 789 790 792 793 794 795 796 797 798 799 800 801 802 803 803 804 805 806 806 807 807 808 808 809 810 810 810 810 811 811 811 812 812 813 813 814 815 815 816 816 816 817 818 818 818 819 820 821 822 823 823 823 823 823 823 824 824 824 824 824 823
753 755 757 760 762 763 765 766 767 768 770 771 773 774 776 778 779 781 782 784 785 786 787 788 790 791 793 794 795 797 797 798 799 800 801 802 803 804 804 805 806 807 807 808 808 809 809 810 811 811 811 811 812 812 812 813 813 814 814 815 816 816 816 817 817 818 819 819 819 819 820 821 823 824 824 824 824 824 825 825 825 825 825 825 825
754 755 757 760 762 764 765 766 768 769 770 772 774 775 777 778 780 782 783 784 785 787 788 789 791 792 794 794 796 797 798 799 800 801 802 803 804 805 806 806 807 807 808 809 809 810 810 812 812 812 812 813 813 813 813 814 814 815 815 816 816 817 817 818 818 819 820 820 820 821 821 822 823 825 825 826 825 826 826 827 826 826 826 826 826
754 755 758 760 762 764 766 767 768 770 771 773 774 776 777 779 780 782 783 785 786 787 788 790 791 793 794 795 797 798 799 800 801 802 803 804 805 806 807 807 808 809 809 810 811 811 812 813 813 813 813 814 814 814 814 814 815 815 816 817 817 818 818 819 819 820 820 821 822 823 823 823 824 826 827 827 827 827 828 828 827 827 827 827 827
754 757 759 760 763 764 766 768 769 770 772 773 775 777 778 780 781 782 784 785 787 788 789 791 792 794 795 796 797 799 800 801 802 803 804 805 806 807 808 808 809 810 810 811 812 812 813 814 814 814 814 815 815 815 815 815 816 816 817 817 818 818 819 819 820 820 821 822 822 825 824 823 825 826 828 828 828 828 829 829 829 829 829 828 828
755 758 760 761 763 764 767 768 770 771 772 774 775 777 779 780 782 783 784 786 787 789 790 792 793 794 796 797 798 800 800 802 803 803 805 806 807 808 808 809 810 811 811 812 813 813 814 814 815 815 815 815 816 816 816 816 817 817 818 818 819 819 819 819 820 821 821 822 824 826 825 824 826 827 829 829 829 829 829 830 829 830 829 830 829
757 759 760 762 763 765 767 769 771 772 773 775 776 778 779 781 782 784 785 787 788 789 791 792 794 795 796 798 799 800 801 802 803 804 806 806 808 808 809 810 810 811 812 812 813 814 814 815 815 815 815 816 816 817 817 817 817 818 818 819 819 819 819 820 820 821 821 824 825 826 825 825 827 828 830 830 830 830 830 830 830 830 830 830 830
757 759 761 762 764 766 768 770 771 773 775 776 777 779 780 782 783 784 786 787 789 790 792 793 795 796 797 799 800 801 802 803 804 805 806 807 808 809 810 810 811 812 812 813 813 814 814 815 815 815 816 816 816 817 817 818 818 818 819 820 820 820 820 820 820 821 822 825 826 825 825 826 827 829 830 831 831 831 831 831 831 831 831 831 831
758 760 762 762 765 767 768 771 772 774 776 777 779 780 781 782 784 785 787 788 790 791 792 794 795 797 798 799 800 802 803 804 805 806 807 808 809 810 811 811 812 812 813 813 814 814 814 815 815 815 816 816 817 817 818 818 819 819 820 820 820 820 820 820 820 821 823 825 826 825 826 826 828 830 831 832 832 832 832 832 832 832 832 832 832
759 761 762 764 766 768 770 771 773 775 776 778 780 781 782 783 785 786 788 789 791 792 794 795 796 797 799 800 801 802 804 805 806 807 808 808 809 810 811 812 812 813 813 814 814 815 814 815 815 816 816 817 817 817 818 818 819 820 820 821 821 821 821 821 821 821 824 825 826 825 825 827 828 830 832 833 833 833 832 833 833 833 833 832 832
760 761 763 765 767 769 771 772 775 776 778 780 781 782 783 784 786 787 789 790 792 794 795 796 797 798 799 801 802 803 804 805 806 807 808 809 810 810 811 812 812 813 813 814 815 815 815 815 816 817 817 817 818 818 819 819 819 820 820 821 821 821 821 821 821 822 825 826 826 825 825 827 829 830 832 834 833 834 833 834 834 834 834 833 833
761 762 764 766 768 771 772 774 775 777 779 781 782 783 785 786 787 789 790 791 793 794 796 797 798 799 800 802 803 804 805 806 807 807 808 809 810 811 811 812 812 813 813 814 815 815 816 816 816 817 818 818 818 819 819 819 819 820 821 821 821 821 821 821 821 822 825 826 826 825 826 828 829 831 833 834 834 834 834 835 835 835 835 834 834
761 762 765 767 769 772 773 775 776 779 780 782 784 784 786 787 788 790 791 792 794 795 796 798 799 800 801 803 804 805 806 807 808 808 809 810 810 811 811 812 813 813 814 815 815 815 816 816 817 817 818 819 819 820 819 820 819 820 821 821 822 821 822 821 821 822 825 827 826 825 827 829 830 832 833 834 835 835 835 835 836 835 835 835 835
762 763 766 768 770 773 774 776 777 779 781 783 784 785 787 788 790 791 792 793 794 796 797 799 799 801 802 803 805 806 807 808 809 809 810 810 811 811 812 813 813 814 814 815 815 816 816 817 817 818 818 819 819 820 820 820 820 820 820 821 822 822 822 822 822 823 825 827 826 826 828 829 831 832 834 835 835 835 836 836 836 836 836 836 836
763 765 767 769 772 773 774 776 778 779 781 783 785 786 788 789 791 791 793 794 795 797 798 799 800 801 803 804 806 807 808 809 810 810 810 811 811 812 812 813 813 814 814 815 815 816 816 817 817 818 819 819 820 820 820 820 820 820 821 821 822 822 823 823 823 824 826 827 825 826 828 829 831 833 834 835 835 836 836 836 836 836 836 836 836
765 767 769 771 772 774 775 776 778 779 781 783 785 787 788 790 791 792 794 795 796 797 798 800 800 802 803 805 806 807 809 809 810 810 810 811 811 812 813 813 814 814 815 815 816 816 817 817 818 818 818 819 820 820 821 821 821 821 821 821 822 823 823 823 823 824 826 826 825 826 828 830 831 833 834 835 836 836 836 837 837 837 837 837 837
766 768 770 772 773 775 776 777 778 779 781 783 785 787 789 790 791 793 794 795 796 797 798 800 801 802 804 805 807 808 810 810 810 810 810 811 812 812 813 814 814 815 815 815 816 816 817 817 818 818 819 819 820 821 821 821 821 821 821 821 822 822 823 823 824 825 825 825 826 827 828 829 831 833 834 835 836 836 837 837 837 837 837 837 837
768 770 772 773 774 776 776 778 779 780 782 783 786 787 789 790 791 793 794 795 796 797 799 800 801 803 804 806 807 809 810 810 810 810 811 811 812 813 813 814 815 815 815 816 816 816 817 818 818 819 819 819 820 821 821 821 822 822 822 821 821 822 822 823 824 825 824 825 827 827 828 830 831 832 834 835 836 836 837 837 837 837 837 837 837
770 772 773 774 774 777 777 779 779 781 783 784 786 787 788 790 791 793 794 796 796 798 799 800 801 802 804 805 807 809 810 810 810 810 810 811 811 812 813 814 815 815 816 816 816 817 817 818 819 819 820 820 820 820 821 821 822 822 822 822 821 821 822 822 823 824 824 825 826 827 828 829 831 832 834 835 835 836 837 837 837 838 838 837 838
771 773 773 774 775 777 778 779 780 781 783 784 785 786 788 789 791 793 794 796 797 798 799 800 801 802 804 804 806 808 809 809 809 808 808 809 810 812 813 814 815 815 816 816 817 817 818 818 819 820 820 820 820 821 821 821 822 822 823 822 821 821 821 822 823 824 823 824 826 827 828 829 831 832 834 835 835 836 837 837 837 838 838 838 838
772 773 772 773 774 776 777 778 779 781 783 784 785 786 788 789 791 792 794 796 796 798 799 800 800 801 803 803 805 808 808 807 806 806 807 808 810 811 813 814 815 816 816 817 817 818 818 819 819 820 820 821 821 821 820 821 821 822 822 822 822 821 821 822 823 824 823 824 825 826 827 828 830 832 834 834 835 836 836 837 837 838 838 838 838
769 770 771 772 773 774 776 778 779 781 782 783 784 786 787 789 791 792 794 795 795 797 798 799 800 801 801 802 804 806 807 806 805 805 806 808 809 811 812 813 815 816 817 817 817 818 818 819 820 820 821 821 821 821 820 821 821 822 822 822 822 822 822 822 823 823 822 824 825 826 826 827 830 832 833 834 835 836 836 837 837 837 838 838 838
764 766 769 771 773 774 775 777 779 781 782 783 784 785 787 790 791 792 793 793 795 796 797 798 801 802 801 802 803 804 805 805 805 805 805 807 808 810 812 814 816 816 817 817 817 818 818 819 819 820 820 821 821 820 821 821 821 821 822 822 822 822 823 822 823 823 822 823 825 826 826 827 829 831 832 834 835 835 835 836 837 837 837 838 837
762 764 767 769 771 773 775 777 779 781 782 783 784 785 787 789 791 791 792 793 794 795 796 798 802 804 804 804 802 802 803 805 806 806 806 807 809 811 812 814 816 816 817 817 817 817 818 819 819 820 820 821 821 820 821 821 821 821 822 821 821 822 823 823 823 823 822 823 824 826 826 827 828 830 832 833 834 835 835 835 836 836 837 837 837
761 763 765 767 769 771 774 776 778 780 782 783 784 785 787 788 789 790 791 793 794 796 797 799 802 803 803 802 801 801 801 803 805 806 807 808 809 811 813 814 815 815 815 816 816 816 817 818 819 820 820 821 820 820 821 821 821 821 822 822 821 822 823 823 823 823 822 823 824 826 826 827 828 829 831 832 833 834 835 835 835 836 836 837 838
760 762 764 766 767 769 772 775 777 780 781 783 784 785 787 787 788 790 792 793 793 795 797 800 802 801 801 801 800 800 800 802 804 805 806 807 809 810 812 813 813 812 811 813 815 815 817 817 818 820 820 820 820 820 821 821 821 821 821 822 822 822 823 824 824 823 823 823 824 826 826 827 828 829 830 831 833 834 834 835 835 835 836 836 837
760 762 764 765 766 767 771 774 777 779 781 783 785 786 786 787 789 790 792 793 794 796 798 800 801 800 800 799 798 798 799 801 803 804 805 806 807 808 810 811 810 808 808 811 813 814 816 816 817 818 819 820 820 820 821 821 821 821 821 821 822 822 823 823 824 824 823 824 825 826 826 827 828 829 829 830 832 833 834 834 835 835 835 836 836
760 762 763 763 764 767 770 773 776 778 780 783 784 785 786 787 788 790 792 793 795 796 798 798 799 799 798 797 797 798 799 801 802 804 805 805 805 807 808 810 809 807 808 811 812 814 815 815 815 817 819 819 820 820 820 821 821 821 821 821 822 822 823 823 824 825 824 824 825 826 826 827 828 829 829 830 831 832 833 834 834 835 835 836 836
760 761 762 762 764 766 769 773 775 778 780 782 783 784 785 785 787 789 791 792 794 796 796 796 797 797 797 797 798 799 800 801 802 803 804 805 805 805 807 808 808 807 808 810 811 813 815 815 815 817 819 819 819 819 819 820 820 821 821 821 821 822 822 823 824 825 824 824 825 826 826 827 828 828 829 830 830 831 832 833 834 834 835 835 836
760 760 761 763 764 766 769 773 775 777 780 781 783 784 785 785 786 788 790 791 792 794 795 796 796 796 797 797 798 799 800 801 802 802 803 804 804 804 806 807 808 807 808 810 812 814 815 816 816 817 819 819 819 818 819 819 819 820 820 821 821 821 822 822 823 824 824 824 824 826 826 827 827 828 829 830 830 831 831 832 833 834 834 835 836
760 760 762 764 765 766 770 773 776 778 780 781 783 784 785 786 787 788 790 791 792 793 794 795 795 795 796 796 798 799 800 801 802 801 802 802 802 802 804 806 807 808 809 811 813 815 816 816 816 818 819 819 818 818 819 819 819 819 819 820 820 821 821 822 823 824 824 824 823 824 825 826 826 828 828 829 830 831 831 832 833 833 834 834 835
760 761 763 765 766 767 771 774 776 779 780 782 783 784 785 786 787 789 791 792 794 797 797 796 795 795 795 796 796 798 799 801 802 802 802 802 801 801 802 804 807 808 810 813 814 815 816 816 817 818 819 818 818 819 819 819 818 818 819 819 819 820 820 821 822 823 824 824 823 823 824 825 826 827 828 829 830 830 831 832 832 833 833 834 835
760 762 764 765 767 769 772 775 776 779 780 781 782 784 785 786 788 789 791 793 794 797 798 798 798 797 797 797 797 798 799 801 802 803 804 804 803 802 803 804 807 810 811 812 813 813 815 816 816 817 817 818 819 819 819 819 819 818 819 818 818 818 819 819 821 822 823 823 824 824 824 825 825 826 827 828 829 830 831 831 832 832 833 834 834
761 763 765 766 769 770 773 775 776 778 780 781 783 784 786 786 788 790 791 792 794 795 796 797 798 798 798 798 799 800 800 801 801 803 804 805 804 804 804 806 809 811 810 809 809 812 814 815 815 815 816 818 818 819 819 820 820 819 818 817 817 817 818 818 820 821 822 823 824 824 825 825 825 826 826 827 828 829 830 830 831 832 832 833 834
763 764 765 767 769 771 773 775 777 778 780 782 783 784 786 787 789 790 791 791 793 793 794 796 797 798 798 799 800 800 800 800 800 801 802 803 804 804 806 808 811 810 809 808 810 813 814 815 814 814 815 816 816 817 818 819 820 819 818 817 818 819 819 819 819 820 821 823 824 825 825 825 825 826 826 827 828 829 829 830 831 831 832 833 834
765 766 767 769 770 772 774 775 777 778 780 782 783 785 786 788 789 789 791 791 792 793 794 795 796 797 798 799 799 799 799 799 800 801 801 803 804 804 806 808 808 807 807 809 811 813 814 814 814 814 814 815 814 816 818 819 820 820 819 820 820 821 821 821 821 821 822 823 824 824 825 825 826 826 826 827 827 828 829 830 831 831 832 832 833
766 767 768 769 771 772 774 775 777 778 780 782 783 785 786 788 789 790 791 791 792 793 794 795 796 797 798 799 799 799 799 800 801 801 801 803 803 804 805 805 805 806 807 809 810 812 813 813 813 813 814 815 815 816 818 820 821 821 820 821 822 822 822 823 823 823 823 823 823 824 824 825 826 826 827 827 827 827 828 829 830 830 831 832 832
768 768 769 770 771 773 774 776 777 778 780 782 783 785 786 788 789 790 791 792 793 794 795 795 796 797 798 798 799 799 800 801 801 802 802 802 803 803 803 804 805 805 806 808 809 810 811 812 812 813 814 815 816 815 817 820 822 822 821 821 823 823 823 823 823 824 823 823 823 823 823 824 825 826 827 827 828 828 827 828 828 829 830 831 832
769 770 770 771 772 773 774 775 777 778 780 781 783 784 786 787 788 790 791 792 793 794 795 796 797 797 798 799 799 800 800 801 801 802 802 803 803 802 802 804 805 805 806 807 808 809 810 811 811 812 814 815 815 815 815 817 819 820 820 820 822 822 822 822 823 824 824 823 823 823 823 823 824 825 826 826 827 828 828 828 828 828 829 830 831
770 771 771 771 772 773 774 775 776 778 779 781 782 784 785 787 788 789 791 792 793 794 795 796 798 798 799 799 800 801 801 801 802 802 803 803 803 803 803 803 804 805 806 806 807 808 809 809 810 812 813 812 813 813 814 816 817 817 818 818 819 820 821 821 823 824 824 824 823 823 823 823 823 824 825 825 826 827 828 828 828 828 828 829 830
771 772 772 771 772 773 773 774 776 777 779 780 782 783 785 786 787 789 790 791 793 795 796 797 799 799 800 800 801 801 801 802 802 802 803 803 803 804 803 804 804 805 805 806 807 808 808 809 810 811 812 812 811 812 813 814 815 816 817 818 818 820 821 821 822 823 824 823 823 824 824 824 824 824 824 825 825 826 826 827 828 828 828 829 829
771 771 771 771 771 772 773 774 775 777 778 780 781 782 784 786 787 788 789 791 793 795 797 799 800 800 801 801 801 801 802 802 802 802 803 803 803 803 804 804 804 805 805 806 807 807 807 808 809 810 811 812 811 811 812 813 814 816 818 818 819 820 822 822 822 823 823 823 823 823 823 824 824 824 824 824 824 825 825 825 826 826 826 827 828
770 770 770 770 770 771 772 773 774 776 778 779 780 782 784 786 787 789 791 792 794 796 797 799 800 801 801 802 802 802 802 803 803 803 803 804 804 804 804 804 805 805 806 806 806 806 807 808 809 810 811 812 811 812 813 813 815 816 817 818 819 821 822 821 821 822 822 822 822 822 822 823 822 823 823 823 823 823 823 823 824 825 825 826 827
769 770 770 770 770 770 771 772 774 775 777 778 780 781 783 785 787 790 792 793 794 796 797 799 800 801 802 802 803 803 803 804 803 804 804 804 804 804 804 804 805 805 806 806 807 807 808 808 809 809 810 811 812 813 814 815 815 816 816 817 818 820 820 820 822 823 822 821 821 821 821 821 821 822 822 822 822 822 822 822 822 822 823 825 826
769 770 769 769 769 769 770 771 773 774 776 778 779 781 783 785 788 790 792 793 794 795 797 799 800 801 802 803 803 804 804 804 804 805 805 805 805 804 804 805 805 806 806 806 807 807 808 809 810 810 811 811 812 813 814 815 816 816 817 817 818 819 819 820 822 823 823 822 820 820 820 820 820 821 821 821 821 821 821 821 821 822 822 824 825
770 770 768 768 768 768 769 770 772 774 776 778 779 781 783 785 787 790 791 792 793 795 797 799 800 801 802 803 803 804 805 805 805 806 806 806 806 806 806 806 806 806 806 807 807 808 809 810 810 811 811 812 813 814 815 815 817 818 818 818 819 819 819 819 820 821 822 822 821 820 820 819 819 819 820 820 820 820 820 820 820 821 822 823 824
767 768 766 766 767 767 768 770 771 773 775 777 779 781 783 784 786 789 791 792 793 795 797 799 800 801 802 803 804 804 805 805 806 806 807 807 807 807 807 807 807 807 807 808 809 809 810 811 811 812 813 813 814 814 815 816 817 818 819 819 819 819 819 819 819 820 820 821 821 819 818 818 817 817 818 818 818 818 818 819 819 820 821 822 822
761 766 767 765 765 766 767 769 770 772 774 776 778 780 782 784 786 788 790 791 793 795 797 798 800 801 802 803 804 805 806 806 807 807 807 808 808 808 808 808 808 808 809 810 810 811 811 812 812 813 813 814 815 815 815 816 817 817 818 819 818 818 819 820 820 820 820 820 820 818 817 816 816 816 816 816 816 817 817 817 818 819 819 820 820
756 763 767 764 763 764 765 767 769 771 773 775 778 780 782 783 785 787 789 790 792 794 795 798 800 801 802 803 804 805 806 807 807 808 808 808 809 809 809 810 810 810 811 811 811 812 812 813 813 814 814 815 815 816 816 817 817 818 818 818 819 819 819 820 821 821 821 820 820 819 817 816 816 815 815 815 815 816 816 816 816 817 817 818 818